Sisters Island, British Columbia

8:53 PM PST on February 22, 2018 (GMT -0800)
Sisters Island

Weather History for CWGT - October, 2012

Change the Weather History Date:

Friday, October 26, 2012

  Actual Average Record
Temperature  
Mean Temperature 46 °F -  
Max Temperature 47 °F - - ()
Min Temperature 45 °F - - ()
Degree Days  
Heating Degree Days 19    
Moisture  
Dew Point 42 °F    
Average Humidity 84    
Maximum Humidity 93    
Minimum Humidity 76    
Precipitation  
Precipitation 0.00 in - - ()
Sea Level Pressure  
Sea Level Pressure 30.12 in    
Wind  
Wind Speed 19 mph ()    
Max Wind Speed 28 mph    
Max Gust Speed -    
T = Trace of Precipitation, MM = Missing Value Source: Averaged Metar Reports

Daily Weather History Graph

Daily Weather History Graph

Search for Another Location

Airport or City:

Trip Planner

Search our weather history database for the weather conditions in past years. The results will help you decide how hot, cold, wet, or windy it might be!

Date:

Astronomy

Oct. 26, 2012 Rise Set
Actual Time 7:57 AM PDT 6:05 PM PDT
Civil Twilight 7:24 AM PDT 6:38 PM PDT
Nautical Twilight 6:46 AM PDT 7:15 PM PDT
Astronomical Twilight 6:09 AM PDT 7:52 PM PDT
Moon 4:34 PM PDT (10/26) 4:46 AM PDT (10/26)
Length of Visible Light 11h 13m
Length of Day
10h 07m
Waxing Gibbous, 91% of the Moon is Illuminated
Oct 26
Waxing Gibbous
Oct 29
Full
Nov 6
Last Quarter
Nov 13
New
Nov 20
First Quarter

Hourly Weather History & Observations

Time (PDT) Temp. Windchill Dew Point Humidity Pressure Visibility Wind Dir Wind Speed Gust Speed Precip Events Conditions
12:00 AM 47.3 °F - 43.9 °F 88% 30.27 in - SE 24.2 mph - N/A   Unknown
1:00 AM 47.1 °F - 43.2 °F 86% 30.27 in - ESE 27.6 mph - N/A   Unknown
2:00 AM 47.1 °F - 43.3 °F 87% 30.25 in - ESE 25.3 mph - N/A   Unknown
3:00 AM 47.7 °F - 42.1 °F 81% 30.24 in - ESE 23.0 mph - N/A   Unknown
4:00 AM 47.1 °F - 42.8 °F 85% 30.22 in - ESE 18.4 mph - N/A   Unknown
5:00 AM 46.9 °F - 42.1 °F 83% 30.19 in - SE 23.0 mph - N/A   Unknown
6:00 AM 46.9 °F - 41.7 °F 82% 30.16 in - SE 26.5 mph - N/A   Unknown
8:00 AM 45.9 °F 37.6 °F 42.1 °F 87% 30.14 in - ESE 23.0 mph - N/A   Unknown
9:00 AM 45.5 °F 38.1 °F 42.6 °F 90% 30.17 in - ESE 18.4 mph - N/A   Unknown
10:00 AM 45.5 °F 40.3 °F 41.4 °F 85% 30.17 in - East 10.4 mph - N/A   Unknown
11:00 AM 46 °F - 41 °F 77% 30.14 in - ESE 17.3 mph - -  
11:00 AM 45.7 °F 38.6 °F 41.0 °F 84% 30.14 in - ESE 17.3 mph - N/A   Unknown
12:00 PM 46.4 °F 39.5 °F 41.9 °F 84% 30.13 in - ESE 17.3 mph - N/A   Unknown
1:00 PM 46.9 °F - 40.3 °F 78% 30.11 in - SE 23.0 mph - N/A   Unknown
2:00 PM 46.9 °F - 40.8 °F 79% 30.09 in - SE 24.2 mph - N/A   Unknown
3:00 PM 46.6 °F - 40.6 °F 80% 30.07 in - ESE 23.0 mph - N/A   Unknown
4:00 PM 47.3 °F - 41.4 °F 80% 30.06 in - ESE 23.0 mph - N/A   Unknown
5:00 PM 47 °F - 42 °F 76% 30.05 in - SE 21.9 mph - -  
5:00 PM 46.9 °F - 41.9 °F 83% 30.05 in - SE 21.9 mph - N/A   Unknown
6:00 PM 46.6 °F - 41.9 °F 84% 30.04 in - ESE 19.6 mph - N/A   Unknown
7:00 PM 45.9 °F 38.5 °F 43.2 °F 90% 30.05 in - ESE 18.4 mph - N/A   Unknown
8:00 PM 45.1 °F 37.9 °F 42.6 °F 91% 30.05 in - ESE 17.3 mph - N/A   Unknown
9:00 PM 45.3 °F 39.0 °F 43.3 °F 93% 30.03 in - SE 13.8 mph - N/A   Unknown
10:00 PM 45.3 °F 39.7 °F 42.8 °F 91% 30.02 in - East 11.5 mph - N/A   Unknown
11:00 PM 46 °F - 42 °F 83% 30.01 in - East 9.2 mph - -  
11:00 PM 45.5 °F 40.8 °F 42.4 °F 89% 30.01 in - East 9.2 mph - N/A   Unknown